Weather History for KHDN - October, 2013

Change the Weather History Date:

Saturday, October 12, 2013

  Actual Average Record
Temperature  
Mean Temperature 42 °F -  
Max Temperature 51 °F 63 °F 80 °F (1950)
Min Temperature 32 °F 30 °F 17 °F (1955)
Degree Days  
Heating Degree Days 24    
Moisture  
Dew Point 31 °F    
Average Humidity 70    
Maximum Humidity 93    
Minimum Humidity 38    
Precipitation  
Precipitation 0.00 in - - ()
Sea Level Pressure  
Sea Level Pressure 30.15 in    
Wind  
Wind Speed 7 mph (SE)    
Max Wind Speed 13 mph    
Max Gust Speed 16 mph    
Visibility 10 miles    
Events      
Averages and records for this station are not official NWS values.
T = Trace of Precipitation, MM = Missing Value Source: NWS Daily Summary

Daily Weather History Graph

Daily Weather History Graph

Search for Another Location

Airport or City:

Trip Planner

Search our weather history database for the weather conditions in past years. The results will help you decide how hot, cold, wet, or windy it might be!

Date:

Astronomy

Oct. 12, 2013 Rise Set
Actual Time 7:16 AM MDT 6:32 PM MDT
Civil Twilight 6:49 AM MDT 7:00 PM MDT
Nautical Twilight 6:17 AM MDT 7:31 PM MDT
Astronomical Twilight 5:46 AM MDT 8:03 PM MDT
Moon 2:45 PM MDT (10/12) 12:22 AM MDT (10/12)
Length of Visible Light 12h 10m
Length of Day
11h 15m
First Quarter, 59% of the Moon is Illuminated
Oct 12
First Quarter
Oct 18
Full
Oct 26
Last Quarter
Nov 3
New
Nov 9
First Quarter

Hourly Weather History & Observations

Time (MDT) Temp. Windchill Dew Point Humidity Pressure Visibility Wind Dir Wind Speed Gust Speed Precip Events Conditions
12:15 AM 37.4 °F 32.8 °F 35.6 °F 93% 30.16 in 10.0 mi ESE 5.8 mph - N/A   Overcast
12:35 AM 37.4 °F 32.1 °F 35.6 °F 93% 30.16 in 10.0 mi SE 6.9 mph - N/A   Overcast
12:55 AM 37.4 °F 32.8 °F 35.6 °F 93% 30.16 in 9.0 mi SSE 5.8 mph - N/A   Overcast
1:15 AM 37.4 °F 32.8 °F 33.8 °F 87% 30.16 in 10.0 mi SSE 5.8 mph - N/A   Mostly Cloudy
1:35 AM 37.4 °F - 33.8 °F 87% 30.17 in 10.0 mi Calm Calm - N/A   Overcast
1:55 AM 37.4 °F 34.9 °F 33.8 °F 87% 30.17 in 7.0 mi South 3.5 mph - N/A   Overcast
2:15 AM 37.4 °F 33.8 °F 33.8 °F 87% 30.17 in 10.0 mi SSE 4.6 mph - N/A   Mostly Cloudy
2:35 AM 37.4 °F - 33.8 °F 87% 30.16 in 10.0 mi Calm Calm - N/A   Mostly Cloudy
2:55 AM 37.4 °F 33.8 °F 33.8 °F 87% 30.16 in 10.0 mi East 4.6 mph - N/A   Overcast
3:15 AM 37.4 °F 31.4 °F 33.8 °F 87% 30.16 in 10.0 mi ESE 8.1 mph - N/A   Overcast
3:35 AM 37.4 °F 31.4 °F 33.8 °F 87% 30.16 in 10.0 mi ESE 8.1 mph - N/A   Overcast
3:55 AM 37.4 °F 30.8 °F 33.8 °F 87% 30.16 in 10.0 mi ESE 9.2 mph - N/A   Overcast
4:15 AM 37.4 °F 31.4 °F 33.8 °F 87% 30.17 in 10.0 mi ESE 8.1 mph - N/A   Overcast
4:35 AM 35.6 °F 29.2 °F 33.8 °F 93% 30.16 in 10.0 mi ESE 8.1 mph - N/A   Overcast
4:55 AM 35.6 °F 29.9 °F 33.8 °F 93% 30.16 in 10.0 mi East 6.9 mph - N/A   Overcast
5:15 AM 35.6 °F 29.9 °F 33.8 °F 93% 30.16 in 10.0 mi ESE 6.9 mph - N/A   Overcast
5:35 AM 35.6 °F 29.9 °F 33.8 °F 93% 30.16 in 10.0 mi ESE 6.9 mph - N/A   Mostly Cloudy
5:55 AM 33.8 °F 27.7 °F 30.2 °F 87% 30.17 in 10.0 mi SE 6.9 mph - N/A   Scattered Clouds
6:15 AM 33.8 °F 27.0 °F 30.2 °F 87% 30.17 in 10.0 mi SE 8.1 mph - N/A   Mostly Cloudy
6:35 AM 33.8 °F 26.4 °F 30.2 °F 87% 30.17 in 10.0 mi SE 9.2 mph - N/A   Partly Cloudy
6:55 AM 33.8 °F 26.4 °F 28.4 °F 81% 30.17 in 10.0 mi SE 9.2 mph - N/A   Partly Cloudy
7:15 AM 32.0 °F 24.8 °F 28.4 °F 87% 30.17 in 10.0 mi SE 8.1 mph - N/A   Partly Cloudy
7:35 AM 32.0 °F 24.8 °F 28.4 °F 87% 30.17 in 10.0 mi ESE 8.1 mph - N/A   Clear
7:55 AM 33.8 °F 26.4 °F 30.2 °F 87% 30.18 in 10.0 mi ESE 9.2 mph - N/A   Scattered Clouds
8:15 AM 33.8 °F 27.0 °F 30.2 °F 87% 30.19 in 10.0 mi ESE 8.1 mph - N/A   Scattered Clouds
8:35 AM 33.8 °F 27.0 °F 30.2 °F 87% 30.19 in 10.0 mi ESE 8.1 mph - N/A   Clear
8:55 AM 35.6 °F 28.6 °F 32.0 °F 87% 30.19 in 10.0 mi SE 9.2 mph - N/A   Clear
9:15 AM 37.4 °F 30.8 °F 33.8 °F 87% 30.20 in 10.0 mi SE 9.2 mph - N/A   Mostly Cloudy
9:35 AM 39.2 °F 33.6 °F 33.8 °F 81% 30.19 in 10.0 mi ESE 8.1 mph - N/A   Overcast
9:55 AM 39.2 °F 31.6 °F 35.6 °F 87% 30.19 in 10.0 mi ESE 12.7 mph - N/A   Mostly Cloudy
10:15 AM 41.0 °F 33.9 °F 33.8 °F 76% 30.19 in 10.0 mi ESE 12.7 mph - N/A   Scattered Clouds
10:35 AM 41.0 °F 33.9 °F 35.6 °F 81% 30.19 in 10.0 mi ESE 12.7 mph - N/A   Partly Cloudy
10:55 AM 42.8 °F 37.0 °F 35.6 °F 76% 30.19 in 10.0 mi East 10.4 mph - N/A   Partly Cloudy
11:15 AM 44.6 °F 38.8 °F 35.6 °F 71% 30.18 in 10.0 mi ESE 11.5 mph - N/A   Scattered Clouds
11:35 AM 46.4 °F 42.4 °F 33.8 °F 62% 30.18 in 10.0 mi East 8.1 mph - N/A   Partly Cloudy
11:55 AM 46.4 °F 43.5 °F 33.8 °F 62% 30.18 in 10.0 mi East 5.8 mph - N/A   Scattered Clouds
12:15 PM 48.2 °F - 33.8 °F 58% 30.17 in 10.0 mi ENE 6.9 mph - N/A   Mostly Cloudy
12:35 PM 48.2 °F - 30.2 °F 50% 30.16 in 10.0 mi East 3.5 mph - N/A   Mostly Cloudy
12:55 PM 48.2 °F - 28.4 °F 46% 30.15 in 10.0 mi Calm Calm - N/A   Scattered Clouds
1:15 PM 50.0 °F - 28.4 °F 43% 30.14 in 8.0 mi South 3.5 mph - N/A   Partly Cloudy
1:35 PM 50.0 °F - 28.4 °F 43% 30.14 in 10.0 mi Calm Calm - N/A   Clear
1:55 PM 50.0 °F - 28.4 °F 43% 30.13 in 10.0 mi SW 5.8 mph - N/A   Mostly Cloudy
2:15 PM 50.0 °F - 26.6 °F 40% 30.13 in 10.0 mi SW 6.9 mph 16.1 mph N/A   Scattered Clouds
2:35 PM 51.8 °F - 28.4 °F 41% 30.12 in 10.0 mi SW 11.5 mph - N/A   Clear
2:55 PM 51.8 °F - 28.4 °F 41% 30.12 in 10.0 mi SW 6.9 mph - N/A   Partly Cloudy
3:15 PM 51.8 °F - 26.6 °F 38% 30.12 in 10.0 mi WSW 10.4 mph - N/A   Scattered Clouds
3:35 PM 51.8 °F - 26.6 °F 38% 30.12 in 10.0 mi WSW 10.4 mph - N/A   Scattered Clouds
3:55 PM 51.8 °F - 26.6 °F 38% 30.12 in 10.0 mi WSW 6.9 mph - N/A   Mostly Cloudy
4:15 PM 50.0 °F - 30.2 °F 47% 30.12 in 10.0 mi NW 4.6 mph - N/A   Scattered Clouds
4:35 PM 50.0 °F - 30.2 °F 47% 30.12 in 10.0 mi NW 4.6 mph - N/A   Clear
4:55 PM 51.8 °F - 30.2 °F 44% 30.12 in 10.0 mi NW 5.8 mph - N/A   Clear
5:15 PM 48.2 °F - 30.2 °F 50% 30.12 in 10.0 mi NW 6.9 mph - N/A   Clear
5:35 PM 48.2 °F - 32.0 °F 54% 30.12 in 10.0 mi Calm Calm - N/A   Clear
5:55 PM 50.0 °F - 30.2 °F 47% 30.12 in 10.0 mi Calm Calm - N/A   Clear
6:15 PM 51.8 °F - 30.2 °F 44% 30.12 in 10.0 mi Calm Calm - N/A   Clear
6:35 PM 48.2 °F - 30.2 °F 50% 30.12 in 10.0 mi East 4.6 mph - N/A   Partly Cloudy
6:55 PM 44.6 °F 40.7 °F 32.0 °F 61% 30.12 in 10.0 mi ESE 6.9 mph - N/A   Scattered Clouds
7:15 PM 42.8 °F 39.3 °F 30.2 °F 61% 30.13 in 10.0 mi SSE 5.8 mph - N/A   Partly Cloudy
7:35 PM 42.8 °F 40.1 °F 30.2 °F 61% 30.13 in 10.0 mi SSE 4.6 mph - N/A   Clear
7:55 PM 42.8 °F 41.1 °F 28.4 °F 57% 30.13 in 10.0 mi South 3.5 mph - N/A   Clear
8:15 PM 41.0 °F 37.1 °F 28.4 °F 61% 30.13 in 10.0 mi South 5.8 mph - N/A   Clear
8:35 PM 39.2 °F 37.0 °F 28.4 °F 65% 30.14 in 10.0 mi East 3.5 mph - N/A   Clear
8:55 PM 37.4 °F 32.1 °F 28.4 °F 70% 30.15 in 10.0 mi SE 6.9 mph - N/A   Clear
9:15 PM 39.2 °F 33.6 °F 28.4 °F 65% 30.15 in 10.0 mi East 8.1 mph - N/A   Clear
9:35 PM 39.2 °F 33.6 °F 28.4 °F 65% 30.15 in 10.0 mi East 8.1 mph - N/A   Clear
9:55 PM 39.2 °F 32.0 °F 28.4 °F 65% 30.14 in 10.0 mi ESE 11.5 mph - N/A   Clear
10:15 PM 37.4 °F 30.3 °F 28.4 °F 70% 30.14 in 10.0 mi ESE 10.4 mph - N/A   Clear
10:35 PM 37.4 °F 30.8 °F 26.6 °F 65% 30.15 in 10.0 mi ESE 9.2 mph - N/A   Clear
10:55 PM 37.4 °F 29.8 °F 28.4 °F 70% 30.15 in 10.0 mi ESE 11.5 mph - N/A   Clear
11:15 PM 37.4 °F 29.8 °F 28.4 °F 70% 30.15 in 10.0 mi ESE 11.5 mph - N/A   Clear
11:35 PM 37.4 °F 29.8 °F 28.4 °F 70% 30.15 in 10.0 mi ESE 11.5 mph - N/A   Clear
11:55 PM 37.4 °F 29.3 °F 28.4 °F 70% 30.15 in 10.0 mi ESE 12.7 mph - N/A   Clear